Change the Weather History Date:

Saturday, October 20, 2012

  Actual Average Record
Temperature  
Mean Temperature 38 °F -  
Max Temperature 46 °F 49 °F 59 °F (2002)
Min Temperature 30 °F 39 °F 28 °F (2004)
Degree Days  
Heating Degree Days 28    
Moisture  
Dew Point 31 °F    
Average Humidity 83    
Maximum Humidity 96    
Minimum Humidity 60    
Precipitation  
Precipitation 0.00 in - - ()
Sea Level Pressure  
Sea Level Pressure 29.74 in    
Wind  
Wind Speed 3 mph (NE)    
Max Wind Speed 10 mph    
Max Gust Speed 16 mph    
Visibility 10 miles    
Events      
Averages and records for this station are not official NWS values.
T = Trace of Precipitation, MM = Missing Value Source: NWS Daily Summary

Daily Weather History Graph

Daily Weather History Graph

Search for Another Location

Airport or City:

Trip Planner

Search our weather history database for the weather conditions in past years. The results will help you decide how hot, cold, wet, or windy it might be!

Date:

Astronomy

Oct. 20, 2012 Rise Set
Actual Time 7:34 AM AKDT 5:38 PM AKDT
Civil Twilight 6:56 AM AKDT 6:16 PM AKDT
Nautical Twilight 6:13 AM AKDT 6:58 PM AKDT
Astronomical Twilight 5:31 AM AKDT 7:41 PM AKDT
Moon 1:47 PM AKDT (10/20) 10:04 PM AKDT (10/20)
Length of Visible Light 11h 19m
Length of Day
10h 04m
Waxing Crescent, 35% of the Moon is Illuminated
Oct 20
Waxing Crescent
Oct 21
First Quarter
Oct 29
Full
Nov 6
Last Quarter
Nov 13
New

Hourly Weather History & Observations

Time (AKDT) Temp. Windchill Dew Point Humidity Pressure Visibility Wind Dir Wind Speed Gust Speed Precip Events Conditions
12:53 AM 33.1 °F - 32.0 °F 96% 29.65 in 10.0 mi Calm Calm - N/A   Clear
1:53 AM 33.1 °F 28.7 °F 30.9 °F 92% 29.66 in 10.0 mi NE 4.6 mph - N/A   Clear
2:53 AM 33.1 °F - 30.9 °F 92% 29.67 in 10.0 mi Calm Calm - N/A   Clear
3:53 AM 33.1 °F - 30.9 °F 92% 29.68 in 10.0 mi Calm Calm - N/A   Clear
4:53 AM 30.9 °F - 28.9 °F 92% 29.68 in 10.0 mi Calm Calm - N/A   Clear
6:53 AM 34.0 °F 29.8 °F 30.9 °F 89% 29.70 in 10.0 mi ENE 4.6 mph - N/A   Clear
7:53 AM 34.0 °F 31.0 °F 32.0 °F 92% 29.71 in 10.0 mi NE 3.5 mph - N/A   Clear
8:53 AM 36.0 °F 32.1 °F 33.1 °F 89% 29.72 in 10.0 mi NE 4.6 mph - N/A   Clear
9:53 AM 39.0 °F 34.8 °F 34.0 °F 82% 29.73 in 10.0 mi NE 5.8 mph - N/A   Clear
10:53 AM 41.0 °F 35.8 °F 34.0 °F 76% 29.74 in 10.0 mi NNE 8.1 mph 16.1 mph N/A   Clear
11:53 AM 43.0 °F 37.7 °F 34.0 °F 71% 29.75 in 10.0 mi NNE 9.2 mph - N/A   Clear
1:53 PM 45.0 °F 43.5 °F 33.1 °F 63% 29.75 in 10.0 mi Variable 3.5 mph - N/A   Clear
2:53 PM 44.1 °F 40.8 °F 32.0 °F 63% 29.76 in 10.0 mi Variable 5.8 mph - N/A   Clear
3:53 PM 43.0 °F 38.8 °F 30.0 °F 60% 29.77 in 10.0 mi Variable 6.9 mph - N/A   Clear
4:53 PM 39.9 °F 36.7 °F 30.0 °F 68% 29.77 in 10.0 mi NNE 4.6 mph - N/A   Clear
5:53 PM 36.0 °F 31.1 °F 30.0 °F 79% 29.78 in 10.0 mi NNE 5.8 mph - N/A   Clear
6:53 PM 34.0 °F 28.8 °F 32.0 °F 92% 29.79 in 10.0 mi NNE 5.8 mph - N/A   Clear
7:53 PM 34.0 °F 29.8 °F 30.9 °F 89% 29.80 in 10.0 mi NE 4.6 mph - N/A   Clear
8:53 PM 34.0 °F 28.8 °F 30.9 °F 89% 29.80 in 10.0 mi NNE 5.8 mph - N/A   Clear
9:53 PM 34.0 °F 28.8 °F 30.0 °F 85% 29.82 in 10.0 mi ENE 5.8 mph - N/A   Clear
10:53 PM 34.0 °F 31.0 °F 28.9 °F 82% 29.82 in 10.0 mi NE 3.5 mph - N/A   Clear
11:53 PM 34.0 °F 26.0 °F 28.9 °F 82% 29.83 in 10.0 mi NNE 10.4 mph - N/A   Clear